[[{"header":{"parameterUnit":"m.s-1","parameterCategory":1,"la1":30.2991,"la2":30.254,"lo1":-89.0895,"lo2":-89.0444,"dy":0.0017,"dx":0.0017,"nx":28,"ny":28,"refTime":"2025-07-12T03:00:00:Z","depth":0,"parameterNumber":2,"parameterNumberName":"U-component_of_WINDS"},"data":[0,0,0,0,0,0,0,0,0,0,0,0,0,0,0,0,0,0,0,0,0,0,0,0,0,0,0,0,0,0,0,0,0,0,0,0,0,0,0,0,0,0,0,0,0,0,0,0,0,0,0,0,0,0,0,0,0,0,3.451,3.4511,0,3.4606,3.4607,3.4608,3.4571,3.4569,3.4567,3.4564,3.4661,3.4665,3.467,0,0,0,0,0,0,0,0,0,0,0,0,0,3.4292,3.4296,3.451,3.4512,3.4513,3.4606,3.4607,3.4608,3.4571,3.4569,3.4566,3.4563,3.4659,3.4665,3.467,0,0,0,0,0,0,0,0,0,0,0,0,0,3.4387,3.4298,3.451,3.4505,3.4506,3.4606,3.4607,3.4609,3.4572,3.4569,3.4565,3.4562,3.4657,3.4664,3.4671,3.478,0,0,3.4692,3.4695,0,0,0,0,0,0,0,0,3.4382,3.4395,3.4505,3.4506,3.4507,3.4573,3.4565,3.4666,3.4573,3.4547,3.4564,3.4561,3.4634,3.4643,3.4668,3.4785,3.4789,3.4693,3.4697,3.47,3.4702,0,0,0,0,0,0,0,3.4375,3.4391,3.4548,3.4507,3.4508,3.4497,3.4507,3.4584,3.4608,3.4549,3.4546,3.4558,3.4634,3.4661,3.467,3.479,3.4693,3.4699,3.4703,3.4706,3.4997,3.5001,0,0,0,0,0,0,3.4369,3.4386,3.4545,3.4551,3.4435,3.4504,3.4515,3.4555,3.4607,3.4612,3.4561,3.4556,3.4651,3.4662,3.4673,3.4801,3.47,3.4706,3.471,3.4994,3.4998,3.5002,0,0,0,0,0,0,3.4364,3.4383,3.4541,3.4468,3.4487,3.4511,3.4557,3.4559,3.4586,3.4616,3.462,3.4585,3.4649,3.4663,3.4753,3.4804,3.471,3.4716,3.499,3.4995,3.5,3.506,0,0,0,0,0,0,3.4358,3.4382,3.4425,3.4469,3.4491,3.4621,3.456,3.4563,3.4598,3.4593,3.464,3.4644,3.4647,3.4743,3.476,3.4812,3.4721,3.4985,3.4992,3.4998,3.5054,3.5067,3.5078,0,0,0,0,0,3.4351,3.4438,3.4427,3.4447,3.4545,3.4624,3.4636,3.4639,3.4603,3.4645,3.4664,3.4643,3.4797,3.4752,3.4771,3.4826,3.4982,3.499,3.4998,3.5048,3.5064,3.5078,0,0,0,0,0,0,3.4399,3.4444,3.4432,3.4537,3.4577,3.4617,3.4671,3.4657,3.4707,3.47,3.47,3.4711,3.4803,3.4824,3.4774,3.4933,3.4883,3.4896,3.4915,3.4931,3.4943,3.4934,3.4727,0,0,0,0,0,3.4422,3.4483,3.4519,3.4608,3.4629,3.4646,3.4681,3.4679,3.472,3.4737,3.4762,3.4802,3.4859,3.4897,3.4951,3.5057,3.5065,3.5104,3.5117,3.5127,3.5136,3.519,3.5207,3.5028,3.5028,3.5028,0,0,3.447,3.4502,3.4541,3.4619,3.4649,3.471,3.4661,3.4729,3.4773,3.4747,3.4832,3.4853,3.4897,3.4994,3.5039,3.5015,3.5187,3.5137,3.5145,3.5149,3.52,3.5217,3.5232,3.5034,3.5033,3.5032,0,0,3.4588,3.4621,3.4696,3.4728,3.4775,3.4786,3.4804,3.4846,3.4858,3.4944,3.4925,3.4978,3.5077,3.5108,3.5137,3.5265,3.5246,3.5283,3.5346,3.5399,3.5413,3.5425,3.5467,3.5483,3.5293,3.5294,3.5294,0,3.4642,3.4734,3.4737,3.4806,3.4839,3.4818,3.4893,3.4924,3.4986,3.5009,3.4982,3.5103,3.5132,3.5235,3.5266,3.5291,3.531,3.5277,3.5411,3.5423,3.5435,3.5475,3.5491,3.5297,3.5297,3.5297,3.5296,0,3.4796,3.486,3.4916,3.4976,3.5016,3.5088,3.5099,3.5139,3.5134,3.5147,3.5233,3.5267,3.5326,3.5351,3.5348,3.5453,3.5436,3.541,3.536,3.5456,3.5493,3.5509,3.5303,3.5302,3.53,3.5299,0,0,3.4947,3.5006,3.5026,3.5051,3.5101,3.515,3.522,3.5278,3.531,3.5354,3.5411,3.5494,3.547,3.5503,3.5502,3.5549,3.5644,3.5517,3.5518,3.5536,3.5757,3.5774,3.5792,3.5633,3.5636,3.5638,3.5752,0,3.5065,3.5188,3.5192,3.5303,3.5361,3.5341,3.5402,3.5438,3.5452,3.5502,3.5517,3.5575,3.5541,3.5559,3.5605,3.5623,3.5687,3.5615,3.5682,3.5685,3.5668,3.5812,3.583,3.5937,3.5767,3.577,3.5772,0,3.5221,3.5268,3.5385,3.5424,3.5448,3.5502,3.5554,3.5603,3.5643,3.5649,3.5685,3.5677,3.5746,3.5696,3.579,3.574,3.5769,3.5781,3.5785,3.5789,3.5732,3.5816,3.5971,3.5985,3.5796,3.5794,3.5792,0,3.5314,3.5408,3.5489,3.5512,3.556,3.5598,3.5619,3.5656,3.5689,3.5735,3.5756,3.5809,3.5837,3.5878,3.5883,3.5847,3.5976,3.5928,3.5981,3.5981,3.6007,3.6005,3.6165,3.6031,3.6031,3.6031,3.603,0,3.5445,3.5516,3.5531,3.558,3.5659,3.5662,3.574,3.5758,3.579,3.5842,3.5829,3.5878,3.5884,3.5933,3.5938,3.6013,3.6027,3.6032,3.6032,3.6032,3.603,3.6048,3.6039,3.6035,3.6034,3.6033,3.6032,0,3.5561,3.5574,3.5661,3.5699,3.571,3.5766,3.5798,3.5844,3.5857,3.5922,3.5937,3.5957,3.6014,3.6024,3.6093,3.6096,3.6184,3.6178,3.617,3.6168,3.622,3.6213,3.6394,3.6416,3.6271,3.6273,3.6274,0,3.5642,3.5696,3.574,3.5773,3.5796,3.5851,3.5885,3.589,3.5925,3.5973,3.6013,3.6069,3.6114,3.6206,3.6226,3.6277,3.627,3.633,3.6277,3.6274,3.6266,3.6261,3.6265,3.6338,3.634,3.6341,3.6342,0,3.5783,3.5786,3.5835,3.5887,3.5927,3.5968,3.6007,3.6035,3.6044,3.6085,3.6143,3.6178,3.6246,3.6301,3.6351,3.6372,3.6358,3.6359,3.6373,3.6372,3.6363,3.6364,3.6193,3.6354,3.6353,3.6352,3.6352,3.6351,3.5881,3.5927,3.5964,3.6019,3.6048,3.6084,3.6128,3.6146,3.6195,3.6251,3.6251,3.6314,3.635,3.6416,3.644,3.6488,3.6469,3.6491,3.6496,3.65,3.6503,3.6358,3.6498,3.6498,3.6497,3.6497,3.6497,0,3.6018,3.604,3.6091,3.6144,3.6187,3.6171,3.6212,3.6248,3.6304,3.6339,3.6383,3.6448,3.6501,3.6524,3.6575,3.6609,3.6603,3.6622,3.6618,3.6622,3.6519,3.65,3.6625,3.6625,3.6625,3.6625,3.6625,3.6625,3.6094,3.6169,3.6177,3.6266,3.6288,3.6349,3.6373,3.6405,3.6433,3.6506,3.655,3.6565,3.6594,3.6647,3.6694,3.6699,3.6717,3.6737,3.674,3.6643,3.663,3.6617,3.6598,3.6742,3.6742,3.6837,3.6838,3.6839]},{"header":{"parameterUnit":"m.s-1","parameterCategory":1,"la1":30.2991,"la2":30.254,"lo1":-89.0895,"lo2":-89.0444,"dy":0.0017,"dx":0.0017,"nx":28,"ny":28,"refTime":"2025-07-12T03:00:00:Z","depth":0,"parameterNumber":3,"parameterNumberName":"V-component_of_WINDS"},"data":[0,0,0,0,0,0,0,0,0,0,0,0,0,0,0,0,0,0,0,0,0,0,0,0,0,0,0,0,0,0,0,0,0,0,0,0,0,0,0,0,0,0,0,0,0,0,0,0,0,0,0,0,0,0,0,0,0,0,0.7724,0.7725,0,0.7788,0.7789,0.779,0.778,0.7778,0.7777,0.7776,0.7846,0.7849,0.7852,0,0,0,0,0,0,0,0,0,0,0,0,0,0.7595,0.7598,0.7724,0.7725,0.7726,0.7788,0.7789,0.779,0.778,0.7778,0.7777,0.7776,0.7845,0.7849,0.7852,0,0,0,0,0,0,0,0,0,0,0,0,0,0.7655,0.7598,0.7724,0.7728,0.7729,0.7788,0.7789,0.779,0.778,0.7778,0.7777,0.7775,0.7844,0.7848,0.7853,0.7913,0,0,0.7866,0.7868,0,0,0,0,0,0,0,0,0.7651,0.7659,0.7727,0.7728,0.7729,0.7774,0.7769,0.7832,0.778,0.7761,0.7776,0.7774,0.7824,0.783,0.7846,0.7916,0.7919,0.7866,0.7869,0.7871,0.7872,0,0,0,0,0,0,0,0.7647,0.7657,0.775,0.7728,0.7729,0.7727,0.7734,0.7781,0.7801,0.7762,0.7762,0.7769,0.7824,0.7841,0.7847,0.792,0.7866,0.787,0.7873,0.7874,0.8043,0.8044,0,0,0,0,0,0,0.7641,0.7653,0.7748,0.7752,0.7685,0.7731,0.7739,0.7762,0.7801,0.7805,0.7771,0.7769,0.7835,0.7842,0.785,0.7922,0.7871,0.7875,0.7877,0.8041,0.8043,0.8045,0,0,0,0,0,0,0.7639,0.765,0.7745,0.7702,0.7714,0.7735,0.7761,0.7764,0.7781,0.7807,0.7811,0.7784,0.7834,0.7844,0.7897,0.7925,0.7877,0.7881,0.8039,0.8042,0.8044,0.8069,0,0,0,0,0,0,0.7635,0.7649,0.7672,0.7703,0.7717,0.7791,0.7763,0.7766,0.7788,0.7786,0.7821,0.7825,0.7833,0.789,0.7901,0.793,0.7884,0.8036,0.804,0.8043,0.8066,0.8072,0.8078,0,0,0,0,0,0.763,0.7677,0.7673,0.7684,0.7745,0.7792,0.78,0.7808,0.779,0.7814,0.783,0.7824,0.792,0.7896,0.7908,0.7938,0.8035,0.8039,0.8043,0.8063,0.8071,0.8077,0,0,0,0,0,0,0.7651,0.7682,0.7677,0.7735,0.7761,0.779,0.782,0.7816,0.7849,0.7845,0.7854,0.7862,0.7916,0.7933,0.7906,0.7998,0.7975,0.7982,0.7986,0.7994,0.7999,0.7995,0.7888,0,0,0,0,0,0.7662,0.7697,0.7722,0.7771,0.7784,0.78,0.782,0.7824,0.7851,0.7863,0.7883,0.7911,0.7947,0.7971,0.8006,0.8067,0.8075,0.8094,0.81,0.8105,0.8111,0.8144,0.8153,0.8059,0.8059,0.8059,0,0,0.7686,0.7707,0.7729,0.7775,0.7796,0.7832,0.7809,0.7849,0.7876,0.7869,0.792,0.7936,0.7968,0.8025,0.8051,0.804,0.8138,0.811,0.8114,0.8117,0.8149,0.8158,0.8166,0.8062,0.8061,0.8061,0,0,0.7748,0.7767,0.7809,0.7829,0.786,0.787,0.788,0.7909,0.7919,0.797,0.7965,0.7998,0.806,0.8083,0.8102,0.817,0.8166,0.8181,0.8213,0.8245,0.8252,0.8259,0.8283,0.8291,0.8187,0.8187,0.8187,0,0.7774,0.7828,0.7832,0.7872,0.7892,0.7885,0.7928,0.7948,0.7989,0.8004,0.799,0.8067,0.8088,0.815,0.8167,0.8183,0.8195,0.8178,0.825,0.8257,0.8264,0.8287,0.8296,0.8189,0.8189,0.8188,0.8188,0,0.7858,0.7895,0.7926,0.7963,0.7987,0.8028,0.804,0.8064,0.8064,0.8075,0.8127,0.8151,0.8191,0.8205,0.8207,0.8267,0.8259,0.8248,0.8225,0.8274,0.8296,0.8305,0.8191,0.8191,0.819,0.819,0,0,0.7937,0.7974,0.7986,0.8002,0.8033,0.8063,0.8103,0.814,0.816,0.8188,0.8222,0.8274,0.8263,0.8285,0.8289,0.8317,0.8369,0.8302,0.8303,0.8314,0.8436,0.8445,0.8455,0.8365,0.8367,0.8368,0.8433,0,0.8002,0.8072,0.8076,0.8141,0.8175,0.8167,0.8203,0.8226,0.8238,0.8269,0.8282,0.8318,0.8301,0.8314,0.8341,0.8357,0.8393,0.8352,0.8398,0.84,0.8391,0.8466,0.8476,0.8536,0.8442,0.8443,0.8444,0,0.8088,0.8116,0.8183,0.8208,0.8222,0.8254,0.8287,0.8316,0.8343,0.8349,0.8372,0.8372,0.8414,0.8388,0.8446,0.8418,0.8437,0.8447,0.8449,0.8455,0.8426,0.8474,0.8556,0.8565,0.8458,0.8457,0.8456,0,0.8138,0.8193,0.824,0.8254,0.8285,0.8307,0.8321,0.8345,0.8366,0.8395,0.8409,0.8443,0.8462,0.8489,0.8498,0.8478,0.8556,0.8531,0.8562,0.8562,0.858,0.8579,0.8666,0.8591,0.8591,0.8591,0.8591,0,0.8211,0.8252,0.8262,0.8291,0.8337,0.8341,0.8387,0.84,0.8421,0.8453,0.8449,0.8479,0.8489,0.852,0.8527,0.8574,0.8583,0.859,0.8591,0.859,0.8589,0.8604,0.86,0.8594,0.8593,0.8593,0.8592,0,0.8276,0.8284,0.8335,0.8359,0.8365,0.8398,0.8419,0.8447,0.8457,0.8497,0.8506,0.8522,0.8559,0.857,0.8615,0.862,0.8674,0.8672,0.8665,0.8665,0.8697,0.8694,0.8797,0.8811,0.8726,0.8727,0.8728,0,0.8322,0.8353,0.8379,0.8399,0.8414,0.8446,0.8467,0.8472,0.8494,0.8525,0.8549,0.8585,0.8614,0.8674,0.869,0.8724,0.8723,0.8756,0.8728,0.8726,0.8723,0.8722,0.8725,0.8762,0.8763,0.8764,0.8764,0,0.8402,0.8404,0.8434,0.8464,0.8489,0.8513,0.8537,0.8554,0.8563,0.8588,0.8624,0.8646,0.8691,0.8727,0.8761,0.8776,0.8772,0.8773,0.8782,0.8782,0.8776,0.878,0.868,0.8771,0.877,0.877,0.8769,0.8769,0.8459,0.8486,0.8508,0.8541,0.8559,0.8581,0.8607,0.8619,0.8649,0.8685,0.8686,0.8726,0.875,0.8795,0.8812,0.8844,0.8834,0.8848,0.8851,0.8855,0.8857,0.877,0.885,0.885,0.885,0.885,0.885,0,0.854,0.8553,0.8583,0.8615,0.864,0.8632,0.8657,0.8679,0.8714,0.8736,0.8764,0.8806,0.884,0.8857,0.8892,0.8913,0.8912,0.8922,0.8921,0.8925,0.8864,0.8852,0.8922,0.8922,0.8922,0.8922,0.8922,0.8922,0.8585,0.8629,0.8634,0.8687,0.87,0.8738,0.8753,0.8773,0.8791,0.8837,0.8864,0.8875,0.8895,0.893,0.8961,0.8966,0.8979,0.899,0.8993,0.8936,0.8929,0.8922,0.8911,0.8993,0.8993,0.9051,0.9052,0.9052]}]]